KD8PH Weather Reports


Display with metric or nautical units.
time (UTC)temp
F
wind
direction
speed
MPH
gust
MPH
rain 1hr
in
rain 24hr
in
rain mn
in
humidity
%
barometer
mb
20260902200024 93 0.0 0.0 0.00 0.00 0.00 56 1015.7
20260902195021 92 0.0 0.0 0.00 0.00 0.00 57 1015.9
20260902194022 92 0.0 0.0 0.00 0.00 0.00 57 1015.9
20260902193025 92 0.0 0.0 0.00 0.00 0.00 59 1016.1
20260902192021 92 0.0 0.0 0.00 0.00 0.00 57 1016.2
20260902191031 92 0.0 0.0 0.00 0.00 0.00 59 1016.3
20260902190022 91 0.0 0.0 0.00 0.00 0.00 60 1016.4
20260902185022 91 0.0 0.0 0.00 0.00 0.00 61 1016.5
20260902184024 91 0.0 0.0 0.00 0.00 0.00 61 1016.6
20260902183022 91 0.0 0.0 0.00 0.00 0.00 62 1016.7
20260902182025 90 0.0 0.0 0.00 0.00 0.00 63 1016.8
20260902181022 90 0.0 0.0 0.00 0.00 0.00 62 1016.9
20260902180022 90 0.0 0.0 0.00 0.00 0.00 62 1017.1
20260902175022 90 0.0 0.0 0.00 0.00 0.00 63 1017.1
20260902174022 89 0.0 0.0 0.00 0.00 0.00 70 1017.3
20260902173022 89 0.0 0.0 0.00 0.00 0.00 69 1017.5
20260902172029 88 0.0 0.0 0.00 0.00 0.00 68 1017.6
20260902171022 88 0.0 0.0 0.00 0.00 0.00 70 1017.7
20260902170023 88 0.0 0.0 0.00 0.00 0.00 71 1017.9
20260902165022 88 0.0 0.0 0.00 0.00 0.00 71 1018.1
20260902164025 87 0.0 0.0 0.00 0.00 0.00 69 1018.3
20260902163022 87 0.0 0.0 0.00 0.00 0.00 67 1018.5
20260902162022 87 0.0 0.0 0.00 0.00 0.00 69 1018.5
20260902161024 86 0.0 0.0 0.00 0.00 0.00 65 1018.6
20260902160022 86 0.0 0.0 0.00 0.00 0.00 70 1018.6
20260902155022 85 0.0 0.0 0.00 0.00 0.00 74 1018.6
20260902154022 85 0.0 0.0 0.00 0.00 0.00 79 1018.6
20260902153022 84 0.0 0.0 0.00 0.00 0.00 79 1018.6
20260902152022 84 0.0 0.0 0.00 0.00 0.00 78 1018.6
20260902151024 83 0.0 0.0 0.00 0.00 0.00 79 1018.6
20260902150022 83 0.0 0.0 0.00 0.00 0.00 78 1018.5
20260902145022 83 0.0 0.0 0.00 0.00 0.00 78 1018.4
20260902144029 83 0.0 0.0 0.00 0.00 0.00 80 1018.4
20260902143021 82 0.0 0.0 0.00 0.00 0.00 78 1018.4
20260902142022 82 0.0 0.0 0.00 0.00 0.00 80 1018.4
20260902141022 82 0.0 0.0 0.00 0.00 0.00 81 1018.4
20260902140021 81 0.0 0.0 0.00 0.00 0.00 81 1018.4
20260902135022 81 0.0 0.0 0.00 0.00 0.00 83 1018.4
20260902134021 80 0.0 0.0 0.00 0.00 0.00 84 1018.6
20260902133023 80 0.0 0.0 0.00 0.00 0.00 84 1018.6
20260902132022 80 0.0 0.0 0.00 0.00 0.00 85 1018.5
20260902131021 80 0.0 0.0 0.00 0.00 0.00 85 1018.4
20260902130022 79 0.0 0.0 0.00 0.00 0.00 86 1018.3
20260902125022 79 0.0 0.0 0.00 0.00 0.00 86 1018.1
20260902124021 79 0.0 0.0 0.00 0.00 0.00 86 1018.1
20260902123021 78 0.0 0.0 0.00 0.00 0.00 87 1018.1
20260902122021 78 0.0 0.0 0.00 0.00 0.00 87 1018.2
20260902121021 78 0.0 0.0 0.00 0.00 0.00 87 1018.1
20260902120021 78 0.0 0.0 0.00 0.00 0.00 88 1018.0
20260902115023 77 0.0 0.0 0.00 0.00 0.00 88 1017.8
20260902114023 77 0.0 0.0 0.00 0.00 0.00 88 1017.8
20260902113022 77 0.0 0.0 0.00 0.00 0.00 88 1017.7
20260902112021 77 0.0 0.0 0.00 0.00 0.00 88 1017.6
20260902111021 76 0.0 0.0 0.00 0.00 0.00 88 1017.5
20260902110022 76 0.0 0.0 0.00 0.00 0.00 88 1017.4
20260902105021 76 0.0 0.0 0.00 0.00 0.00 87 1017.4
20260902104021 76 0.0 0.0 0.00 0.00 0.00 87 1017.4
20260902103021 76 0.0 0.0 0.00 0.00 0.00 87 1017.3
20260902102021 76 0.0 0.0 0.00 0.00 0.00 87 1017.3
20260902101021 76 0.0 0.0 0.00 0.00 0.00 87 1017.2
20260902100021 76 0.0 0.0 0.00 0.00 0.00 88 1017.0
20260902095021 76 0.0 0.0 0.00 0.00 0.00 88 1017.1
20260902094021 76 0.0 0.0 0.00 0.00 0.00 88 1016.8
20260902093022 76 0.0 0.0 0.00 0.00 0.00 89 1016.8
20260902092021 75 0.0 0.0 0.00 0.00 0.00 89 1016.7
20260902091022 75 0.0 0.0 0.00 0.00 0.00 90 1016.5
20260902090021 75 0.0 0.0 0.00 0.00 0.00 90 1016.4
20260902085021 75 0.0 0.0 0.00 0.00 0.00 90 1016.3
20260902084021 75 0.0 0.0 0.00 0.00 0.00 89 1016.3
20260902083021 76 0.0 0.0 0.00 0.00 0.00 90 1016.1
20260902082021 76 0.0 0.0 0.00 0.00 0.00 90 1016.1
20260902081023 76 0.0 0.0 0.00 0.00 0.00 90 1016.1
20260902080023 76 0.0 0.0 0.00 0.00 0.00 89 1016.1
20260902075023 76 0.0 0.0 0.00 0.00 0.00 89 1016.0
20260902074023 76 0.0 0.0 0.00 0.00 0.00 89 1015.9
20260902073023 76 0.0 0.0 0.00 0.00 0.00 88 1015.9
20260902072024 76 0.0 0.0 0.00 0.00 0.00 89 1015.9
20260902071023 76 0.0 0.0 0.00 0.00 0.00 88 1016.1
20260902070023 76 0.0 0.0 0.00 0.00 0.00 88 1016.2
20260902065023 77 0.0 0.0 0.00 0.00 0.00 88 1016.1
20260902064022 77 0.0 0.0 0.00 0.00 0.00 88 1016.1
20260902063022 76 0.0 0.0 0.00 0.00 0.00 88 1016.2
20260902062022 76 0.0 0.0 0.00 0.00 0.00 88 1016.2
20260902061022 76 0.0 0.0 0.00 0.00 0.00 87 1016.2
20260902060023 76 0.0 0.0 0.00 0.00 0.00 87 1016.3
20260902055023 76 0.0 0.0 0.00 0.00 0.00 87 1016.5
20260902054023 77 0.0 0.0 0.00 0.00 0.00 87 1016.4
20260902053021 77 0.0 0.0 0.00 0.00 0.00 87 1016.3
20260902052022 77 0.0 0.0 0.00 0.00 0.00 87 1016.4
20260902051021 77 0.0 0.0 0.00 0.00 0.00 87 1016.4
20260902050021 77 0.0 0.0 0.00 0.00 0.00 86 1016.4
20260902045021 77 0.0 0.0 0.00 0.00 0.00 86 1016.3
20260902044021 78 0.0 0.0 0.00 0.00 0.00 86 1016.3
20260902043021 78 0.0 0.0 0.00 0.00 0.00 85 1016.4
20260902042021 78 0.0 0.0 0.00 0.00 0.00 85 1016.4
20260902041021 78 0.0 0.0 0.00 0.00 0.00 85 1016.5
20260902040021 78 0.0 0.0 0.00 0.00 0.00 84 1016.5
20260902035021 78 0.0 0.0 0.00 0.00 0.00 85 1016.4
20260902034021 78 0.0 0.0 0.00 0.00 0.00 84 1016.4
20260902033021 79 0.0 0.0 0.00 0.00 0.00 84 1016.4
20260902032021 79 0.0 0.0 0.00 0.00 0.00 84 1016.6
20260902031021 79 0.0 0.0 0.00 0.00 0.00 83 1016.5
20260902030021 79 0.0 0.0 0.00 0.00 0.00 82 1016.6
20260902025021 80 0.0 0.0 0.00 0.00 0.00 82 1016.6
20260902024023 80 0.0 0.0 0.00 0.00 0.00 81 1016.4
20260902023023 80 0.0 0.0 0.00 0.00 0.00 81 1016.3
20260902022023 81 0.0 0.0 0.00 0.00 0.00 80 1016.3
20260902021023 81 0.0 0.0 0.00 0.00 0.00 79 1016.2
20260902020023 81 0.0 0.0 0.00 0.00 0.00 79 1016.2
20260902015023 81 0.0 0.0 0.00 0.00 0.00 77 1016.1
20260902014023 82 0.0 0.0 0.00 0.00 0.00 75 1016.0
20260902013022 82 0.0 0.0 0.00 0.00 0.00 73 1015.9
20260902012023 82 0.0 0.0 0.00 0.00 0.00 75 1015.7
20260902011023 83 0.0 0.0 0.00 0.00 0.00 72 1015.6
20260902010023 84 0.0 0.0 0.00 0.00 0.00 71 1015.5
20260902005022 84 0.0 0.0 0.00 0.00 0.00 71 1015.5
20260902004023 85 0.0 0.0 0.00 0.00 0.00 67 1015.5
20260902003022 86 0.0 0.0 0.00 0.00 0.00 72 1015.6
20260902002028 87 0.0 0.0 0.00 0.00 0.00 67 1015.6
20260902001022 88 0.0 0.0 0.00 0.00 0.00 66 1015.6
20260902000022 88 0.0 0.0 0.00 0.00 0.00 65 1015.6
20260901235022 90 0.0 0.0 0.00 0.00 0.00 59 1015.6
20260901234022 90 0.0 0.0 0.00 0.00 0.00 56 1015.7
20260901233022 91 0.0 0.0 0.00 0.00 0.00 54 1015.7
20260901232023 91 0.0 0.0 0.00 0.00 0.00 50 1015.8
20260901231022 92 0.0 0.0 0.00 0.00 0.00 51 1015.7
20260901230023 92 0.0 0.0 0.00 0.00 0.00 49 1015.8
20260901225027 92 0.0 0.0 0.00 0.00 0.00 51 1015.7
20260901224022 92 0.0 0.0 0.00 0.00 0.00 51 1015.6
20260901223022 93 0.0 0.0 0.00 0.00 0.00 47 1015.6
20260901222022 93 0.0 0.0 0.00 0.00 0.00 47 1015.6
20260901221022 93 0.0 0.0 0.00 0.00 0.00 49 1015.5
20260901220022 93 0.0 0.0 0.00 0.00 0.00 50 1015.6
20260901215022 93 0.0 0.0 0.00 0.00 0.00 47 1015.6
20260901214022 93 0.0 0.0 0.00 0.00 0.00 50 1015.7
20260901213022 93 0.0 0.0 0.00 0.00 0.00 50 1015.8
20260901212022 93 0.0 0.0 0.00 0.00 0.00 48 1015.8
20260901211023 93 0.0 0.0 0.00 0.00 0.00 50 1016.0
20260901210022 93 0.0 0.0 0.00 0.00 0.00 45 1016.1
20260901205022 92 0.0 0.0 0.00 0.00 0.00 46 1016.1
20260901204022 92 0.0 0.0 0.00 0.00 0.00 53 1016.2
20260901203022 92 0.0 0.0 0.00 0.00 0.00 50 1016.4
20260901202022 91 0.0 0.0 0.00 0.00 0.00 53 1016.5
20260901201027 91 0.0 0.0 0.00 0.00 0.00 52 1016.5